Weather in Medicine Hat

Canada     50°02′36″N   110°40′34″W
temp.,
°C
wind,
m/s
gust,
m/s
humid.,
%
clouds,
%
prec.,
mm/h
press.,
hPa
HPBL,
m
19 april, mon
mon1900:000nw357026 0.2 1033108
03:00−1nw357296 0.0 103395
06:00−1nw459098 0.1 1033369
09:00+2nnw696563 0.1 10311195
12:00+4nnw7949100 0.3 10301744
15:00+6nnw7941100 0.3 10282376
18:00+6n7940100 0.3 10261997
21:00+3nne365399 0.0 1028125
20 april, tue
tue2000:00+1ne2263100 0.0 102920
03:00−1n22695 0.0 102910
06:00−2nnw22715 0.0 102910
09:00+2n235210 0.0 1029607
12:00+6nne224025 0.0 10281498
15:00+8ne1133100 0.0 10261589
18:00+8e213278 0.0 10241439
21:00+5e33416 0.0 102430
21 april, wed
wed2100:00+3se33475 0.0 102431
03:00+2s48525 0.0 1023144
06:00+2s512505 0.0 1022211
09:00+7ssw810425 0.0 1020474
12:00+12ssw67305 0.0 10171187
15:00+15ssw56224 0.0 10141814
18:00+16ssw56255 0.0 10112082
21:00+11s59335 0.0 1010128
22 april, thu
thu2200:00+9s613325 0.0 1009213
03:00+7ssw493997 0.0 1008136
06:00+6nnw51180100 0.0 1011402
09:00+2nne91391100 0.0 1017706
12:00+1n81193100 2.7 1020845
15:00+3n8960100 0.9 10201398
18:00+3nne5756100 0.9 10201277
21:00+1nne226573 0.0 102017
23 april, fri
fri2300:00−1nnw126865 0.0 102010
03:00−1sw007081 0.0 101910
06:00−2s117358 0.0 101910
09:00+2sw2257100 0.0 1019453
12:00+5w1148100 0.0 10171412
15:00+7w2345100 0.1 10151838
18:00+7w344167 0.1 10141723
21:00+4wsw335477 0.0 101419